STARLINK-34478 (64435 NORAD) Tracking and Keplerian Element Data

This shows tracking and keplerian element data for the satellite.

Feedback or suggestion? Click here.




ElementValue
Catalog64435
NameSTARLINK-34478
Epoch Orbit2931
Epoch Day354.14620151
Epoch Year2025
RAAN274.9633
Inclination70.0024
Eccentricity0.0002171
Argument of Perigee273.1293
Mean Anonmoly86.9617
Mean Motion14.98327976
Decay Rate-1.874E-05
L11 64435U 25129Z 25354.14620151 -.00001874 00000+0 -14934-3 0 9995
L22 64435 70.0024 274.9633 0002171 273.1293 86.9617 14.98327976 29317



Live tracking and technical data element details for STARLINK-34478 (NORAD 64435). STARLINK-34478 can be tracked NOW for your location showing map with azimuth and elevation plus other details from your city location.







IsCatalogInMostPopularTable: catalog: 64435, numindb: 6
Update: records affected: 1



GetName: 64435 STARLINK-34478

Hit Count: updated at: Wed, 15 Apr 2026 01:27:58 GMT